Location: Pedholt
(56.0260°N, 10.2097°E)
Time: 06:27:28
(UTC+00:00)

IDEFIX/ARIANE 42P - Pass Details

Date: 14 July 2020
Orbit: 784 x 804 km, 98.4° (Epoch: 14 August)

Event Time Altitude Azimuth Distance (km) Brightness Sun altitude
Rises 01:50:25 0° 20° (NNE) 3,300 7.7 -6.5°
Reaches altitude 10° 01:53:00 10° 31° (NNE) 2,363 6.9 -6.3°
Maximum altitude 01:57:38 32° 93° (E) 1,341 4.2 -5.9°
Drops below altitude 10° 02:02:14 10° 156° (SSE) 2,342 4.7 -5.5°
Sets 02:04:47 0° 167° (SSE) 3,265 5.4 -5.3°
